Date,TemperatureHighF,TemperatureAvgF,TemperatureLowF,DewpointHighF,DewpointAvgF,DewpointLowF,HumidityHigh,HumidityAvg,HumidityLow,PressureMaxIn,PressureMinIn,WindSpeedMaxMPH,WindSpeedAvgMPH,GustSpeedMaxMPH,PrecipitationSumIn
2013-1-28,41,38,40,36,26,-100,86,73,60,29.96,29.93,3,-51,0,0.17
2013-1-29,46,42,40,45,41,36,97,95,87,30.10,29.95,7,2,0,0.07
2013-1-30,49,44,41,48,43,40,99,97,95,30.04,29.97,6,2,0,0.02
2013-1-31,56,46,40,53,44,40,99,93,80,30.00,29.86,3,1,0,0.00
2013-2-1,59,46,39,54,42,37,99,89,67,29.91,29.81,4,1,0,0.00
2013-2-2,54,44,38,44,38,33,92,80,66,29.86,29.81,5,1,0,0.00
2013-2-3,45,40,35,44,39,34,99,97,92,29.91,29.81,2,0,0,0.00
2013-2-4,50,43,40,48,42,39,99,94,80,29.82,29.55,4,1,0,0.00
2013-2-5,48,43,40,47,42,40,99,96,93,29.70,29.54,7,3,0,0.14
2013-2-6,48,43,39,45,41,37,99,94,87,29.76,29.53,9,3,0,0.05
2013-2-7,48,39,34,43,37,32,99,91,73,29.85,29.60,5,2,0,0.02
2013-2-8,46,37,28,42,35,28,99,92,82,29.99,29.86,4,1,0,0.01
2013-2-9,43,38,33,42,38,31,99,97,89,30.00,29.95,3,0,0,0.00
2013-2-10,46,41,38,44,38,35,99,92,85,30.05,30.00,3,1,0,0.00
2013-2-11,45,41,38,40,38,34,96,87,84,30.09,30.02,4,1,0,0.00
2013-2-12,53,46,41,50,44,40,99,91,79,30.16,30.07,6,2,0,0.00
2013-2-13,54,47,42,51,43,38,98,88,76,30.17,30.09,5,2,0,0.00
2013-2-14,52,44,36,47,41,35,98,88,77,30.22,30.15,3,1,0,0.00
2013-2-15,63,49,39,51,43,36,99,81,57,30.14,29.84,4,1,0,0.00
2013-2-16,54,43,35,48,40,31,99,90,71,29.92,29.85,8,1,0,0.01
2013-2-17,49,39,33,42,34,28,97,83,63,29.94,29.73,5,1,0,0.00
2013-2-18,45,38,32,40,35,30,99,89,76,29.73,29.39,5,2,0,0.01
2013-2-19,55,43,35,45,36,28,96,80,55,29.67,29.36,4,2,0,0.02
2013-2-20,46,38,33,41,36,31,98,90,78,29.79,29.68,7,1,0,0.02
2013-2-21,43,39,34,42,38,33,99,96,90,29.88,29.77,9,3,0,0.01
2013-2-22,45,40,33,45,40,32,99,98,97,29.85,29.59,13,5,0,0.54
2013-2-23,49,38,32,44,36,30,99,93,79,30.13,29.76,6,1,0,0.08
2013-2-24,51,41,34,44,36,30,98,82,60,30.13,29.75,7,2,0,0.00
2013-2-25,51,40,32,44,36,29,96,84,67,30.08,29.71,8,3,0,0.06
2013-2-26,50,40,30,43,35,30,99,85,67,30.09,29.93,5,1,0,0.00
2013-2-27,50,44,38,44,40,34,94,83,76,30.02,29.93,7,1,0,0.04
2013-2-28,54,49,44,54,49,43,99,99,95,30.13,29.89,8,3,0,0.09
2013-3-1,62,52,49,55,50,45,99,90,74,30.14,30.01,8,2,0,0.00
2013-3-2,55,47,38,50,44,35,97,89,81,30.01,29.85,6,2,0,0.05
2013-3-3,51,40,32,44,34,29,95,82,65,30.01,29.92,4,1,0,0.00
2013-3-4,58,43,30,44,32,24,99,69,41,29.92,29.59,6,2,0,0.00
2013-3-5,45,40,38,43,35,23,98,82,49,29.59,29.33,7,2,0,0.38
2013-3-6,42,40,38,41,39,38,99,99,98,29.63,29.22,6,2,0,0.37
2013-3-7,59,44,34,46,37,27,99,78,47,29.74,29.64,5,1,0,0.00
2013-3-8,62,45,33,46,36,29,98,73,42,29.89,29.71,5,2,0,0.00
2013-3-9,61,46,34,49,37,31,94,73,49,30.17,29.90,5,1,0,0.00
2013-3-10,50,43,35,43,38,32,91,84,73,30.18,30.10,3,0,0,0.00
2013-3-11,54,48,42,50,45,39,96,90,81,30.11,29.92,5,1,0,0.00
2013-3-12,61,52,46,53,47,41,99,85,67,29.92,29.84,7,2,0,0.00
2013-3-13,66,53,46,54,46,42,90,77,58,29.92,29.78,6,1,0,0.00
2013-3-14,57,51,46,50,45,40,95,81,62,29.89,29.74,7,2,0,0.00
2013-3-15,63,53,45,54,47,40,98,81,63,29.93,29.85,4,2,0,0.00
2013-3-16,48,43,36,47,41,34,97,91,83,29.86,29.70,8,2,0,0.12
2013-3-17,51,40,33,41,34,30,96,81,62,29.98,29.83,8,2,0,0.00
2013-3-18,55,42,31,44,35,28,96,77,57,29.97,29.83,6,1,0,0.00
2013-3-19,49,42,35,45,38,31,99,86,68,29.83,29.34,6,2,0,0.70
2013-3-20,51,46,35,49,42,30,99,89,75,29.85,29.20,10,5,0,0.49
2013-3-21,50,39,32,44,34,27,97,83,66,29.99,29.86,9,3,0,0.03
2013-3-22,47,36,28,42,32,27,98,88,73,30.07,29.98,4,1,0,0.03
2013-3-23,50,38,31,42,32,24,95,79,56,30.07,29.95,3,1,0,0.00
2013-3-24,57,44,33,41,32,26,87,66,50,29.95,29.76,6,2,0,0.00
2013-3-25,61,49,39,40,34,27,70,56,44,29.77,29.60,6,1,0,0.00
2013-3-26,52,46,40,47,42,36,93,87,72,29.72,29.65,3,0,0,0.00
2013-3-27,67,51,41,54,45,40,99,82,53,29.68,29.59,4,1,0,0.00
2013-3-28,64,53,44,55,46,43,99,80,57,29.82,29.68,5,1,0,0.00
2013-3-29,72,57,46,56,48,41,97,74,48,29.90,29.82,4,1,0,0.00
2013-3-30,81,61,45,56,47,41,87,64,37,29.87,29.65,5,2,0,0.00
2013-3-31,76,60,48,56,48,40,82,64,44,29.69,29.58,7,2,0,0.00
2013-4-1,65,54,44,54,48,43,95,80,68,29.82,29.68,5,1,0,0.00
2013-4-2,65,56,48,55,48,43,92,73,55,29.90,29.82,6,2,0,0.00
2013-4-3,64,50,41,54,46,40,99,88,66,29.86,29.61,3,0,0,0.00
2013-4-4,59,54,50,56,51,48,97,90,84,29.60,29.38,8,2,0,0.20
2013-4-5,55,50,48,53,49,47,99,95,85,29.63,29.49,14,4,0,0.23
2013-4-6,56,47,44,51,45,39,99,93,77,29.68,29.40,11,4,0,0.57
2013-4-7,50,45,37,47,42,34,99,89,76,29.64,29.24,12,4,0,0.24
2013-4-8,55,45,36,47,40,33,97,83,70,29.98,29.66,5,1,0,0.01
2013-4-9,56,47,37,47,42,34,97,83,67,30.06,29.94,4,1,0,0.00
2013-4-10,62,51,41,57,45,34,96,80,60,30.02,29.80,11,3,0,0.05
2013-4-11,58,46,36,48,39,32,98,80,65,30.04,29.87,4,1,0,0.00
2013-4-12,52,43,32,43,38,30,94,83,72,29.85,29.52,8,2,0,0.00
2013-4-13,50,42,34,41,36,31,96,80,67,29.76,29.60,14,3,0,0.05
2013-4-14,55,42,35,46,37,32,96,85,63,29.76,29.62,5,2,0,0.01
2013-4-15,58,45,34,45,37,32,97,75,52,29.85,29.63,5,1,0,0.00
2013-4-16,63,47,34,47,37,31,94,70,43,30.08,29.86,5,2,0,0.00
2013-4-17,61,48,36,48,39,31,92,72,53,30.18,30.08,4,1,0,0.00
2013-4-18,59,50,42,48,42,38,90,76,62,30.17,30.00,6,1,0,0.08
2013-4-19,59,50,47,54,47,42,99,90,72,29.99,29.84,9,3,0,0.37
2013-4-20,61,51,43,50,43,37,94,77,62,30.03,29.94,5,2,0,0.00
2013-4-21,56,48,41,49,42,37,89,83,76,30.00,29.93,6,1,0,0.00
2013-4-22,67,52,38,48,38,29,95,65,32,30.12,30.01,6,2,0,0.00
2013-4-23,72,55,40,45,34,26,63,46,29,30.07,29.84,6,2,0,0.00
2013-4-24,78,60,42,44,33,25,58,39,23,29.94,29.71,8,2,0,0.00
2013-4-25,81,61,46,48,39,31,63,45,31,29.83,29.71,4,1,0,0.00
2013-4-26,84,62,44,54,43,35,84,53,26,29.93,29.83,4,1,0,0.00
2013-4-27,76,59,47,51,41,31,75,52,33,29.94,29.87,7,2,0,0.00
2013-4-28,71,57,47,52,45,38,89,66,42,29.95,29.76,7,1,0,0.03
2013-4-29,63,50,37,54,40,26,94,69,45,29.91,29.74,6,2,0,0.01
2013-4-30,59,44,33,43,34,26,86,67,42,30.13,29.92,10,2,0,0.00
2013-5-1,69,52,33,44,35,27,83,57,33,30.21,30.13,5,2,0,0.00
2013-5-2,79,62,45,44,37,29,54,41,25,30.15,29.93,10,2,0,0.00
2013-5-3,79,63,46,50,39,30,55,43,30,29.99,29.82,8,3,0,0.00
2013-5-4,82,68,51,51,40,30,63,38,23,29.82,29.58,10,3,0,0.00
2013-5-5,84,70,54,48,39,32,48,33,23,29.59,29.38,10,3,0,0.00
2013-5-6,89,66,47,58,48,35,78,53,35,29.57,29.42,5,2,0,0.00
2013-5-7,80,60,45,61,50,42,91,70,50,29.70,29.54,7,2,0,0.00
2013-5-8,75,56,44,60,49,42,95,79,55,29.84,29.71,4,1,0,0.00
2013-5-9,82,62,46,60,52,45,98,72,42,29.88,29.75,5,1,0,0.00
2013-5-10,83,67,52,61,54,46,88,64,37,29.88,29.77,5,1,0,0.00
2013-5-11,86,68,54,63,55,46,80,64,43,29.85,29.66,4,1,0,0.00
2013-5-12,68,61,56,60,56,51,97,82,71,29.80,29.73,4,1,0,0.14
2013-5-13,67,56,46,60,51,39,99,85,65,29.90,29.72,17,2,0,0.01
2013-5-14,70,54,41,51,42,37,94,67,43,29.92,29.78,5,1,0,0.00
2013-5-15,57,51,46,51,47,39,91,84,69,29.80,29.71,4,1,0,0.02
2013-5-16,62,54,46,59,52,44,98,92,85,29.71,29.62,7,1,0,0.12
2013-5-17,62,52,42,55,47,39,99,84,68,29.79,29.67,8,1,0,0.04
2013-5-18,56,51,43,55,48,39,99,92,79,29.96,29.79,4,1,0,0.27
2013-5-19,67,55,47,54,49,40,99,81,54,30.09,29.96,8,2,0,0.00
2013-5-20,78,56,41,57,47,38,95,75,47,30.03,29.58,5,2,0,0.00
2013-5-21,56,47,40,51,44,40,99,89,73,29.65,29.51,6,2,0,0.34
2013-5-22,47,43,40,47,43,39,99,99,99,29.66,29.60,9,2,0,1.03
2013-5-23,51,46,43,50,46,43,99,99,95,29.70,29.63,7,2,0,0.98
2013-5-24,59,50,45,56,48,43,99,93,77,29.76,29.65,8,2,0,0.11
2013-5-25,69,55,47,55,49,44,99,81,59,29.76,29.60,5,1,0,0.01
2013-5-26,65,56,51,59,51,46,99,85,68,29.71,29.62,10,2,0,0.15
2013-5-27,66,54,49,65,51,45,99,93,83,29.67,29.42,9,2,0,0.51
2013-5-28,62,54,48,55,49,42,99,84,63,29.62,29.45,9,2,0,0.06
2013-5-29,62,53,46,57,50,42,99,88,72,29.74,29.31,9,3,0,0.52
2013-5-30,60,52,45,52,48,44,97,86,72,29.94,29.75,9,1,0,0.05
2013-5-31,71,57,45,54,48,40,99,75,50,30.02,29.91,6,2,0,0.01
2013-6-1,78,60,47,60,51,43,92,73,53,29.93,29.69,5,2,0,0.00
2013-6-2,72,60,51,57,51,44,88,73,53,29.76,29.70,7,3,0,0.00
2013-6-3,79,59,44,58,50,42,97,73,48,29.80,29.70,6,2,0,0.00
2013-6-4,88,66,46,60,51,41,82,61,32,29.77,29.64,6,2,0,0.00
2013-6-5,84,70,55,63,53,44,74,57,44,29.75,29.64,6,2,0,0.00
2013-6-6,84,66,51,64,54,37,96,68,41,29.72,29.65,6,2,0,0.00
2013-6-7,78,62,47,58,47,33,79,59,43,29.83,29.72,6,2,0,0.02
2013-6-8,85,63,44,58,49,42,97,66,37,29.86,29.72,4,1,0,0.08
2013-6-9,73,59,47,54,47,40,92,67,46,29.79,29.67,6,3,0,0.02
2013-6-10,70,56,43,52,45,39,91,69,49,29.71,29.58,10,3,0,0.02
2013-6-11,64,54,46,55,46,40,89,74,61,29.82,29.67,8,2,0,0.10
2013-6-12,61,54,48,56,48,43,85,82,76,29.86,29.81,6,1,0,0.17
2013-6-13,60,53,48,57,51,44,99,93,85,29.98,29.85,7,1,0,0.41
2013-6-14,70,56,45,57,50,44,99,81,58,29.98,29.67,7,2,0,0.00
2013-6-15,82,64,48,61,53,45,97,71,45,29.67,29.59,5,2,0,0.00
2013-6-16,75,62,49,62,54,47,94,78,60,29.77,29.67,5,2,0,0.00
2013-6-17,76,62,48,59,52,46,96,72,49,29.77,29.61,7,2,0,0.00
2013-6-18,68,58,48,56,50,45,96,75,60,29.68,29.61,9,2,0,0.00
2013-6-19,66,55,47,59,49,43,93,80,65,29.76,29.62,6,2,0,0.14
2013-6-20,68,58,50,57,50,45,94,77,55,29.82,29.73,9,2,0,0.00
2013-6-21,69,59,51,55,50,45,86,72,58,29.86,29.79,5,1,0,0.00
2013-6-22,86,65,49,64,52,44,99,67,32,29.79,29.52,5,1,0,0.00
2013-6-23,67,62,56,63,57,50,99,85,59,29.52,29.31,5,1,0,0.30
2013-6-24,65,58,52,61,55,52,99,91,76,29.39,29.30,6,2,0,0.13
2013-6-25,66,60,54,64,57,53,99,91,79,29.54,29.35,7,2,0,0.12
2013-6-26,72,63,56,64,58,54,99,86,70,29.73,29.54,5,1,0,0.01
2013-6-27,79,67,60,66,61,57,96,81,62,29.83,29.69,7,1,0,0.00
2013-6-28,96,74,59,72,64,58,99,76,44,29.82,29.68,6,2,0,0.02
2013-6-29,93,74,59,69,62,54,98,70,42,29.78,29.65,5,2,0,0.02
2013-6-30,101,78,62,70,64,58,89,64,31,29.67,29.52,6,2,0,0.00
2013-7-1,94,76,60,73,64,55,96,69,50,29.69,29.58,5,2,0,0.01
2013-7-2,88,73,58,68,60,52,94,67,38,29.75,29.69,8,2,0,0.01
2013-7-3,85,68,53,57,50,42,85,55,32,29.82,29.70,7,2,0,0.01
2013-7-4,74,61,50,57,51,44,88,69,54,29.83,29.71,9,3,0,0.02
2013-7-5,76,61,49,60,52,45,96,74,54,29.74,29.61,5,2,0,0.02
2013-7-6,81,60,47,64,53,45,99,80,53,29.66,29.53,5,2,0,0.02
2013-7-7,80,64,50,63,55,48,93,73,55,29.65,29.56,5,2,0,0.00
2013-7-8,85,63,48,64,54,46,98,77,48,29.77,29.66,5,2,0,0.02
2013-7-9,91,73,59,66,59,50,88,65,40,29.75,29.66,6,3,0,0.00
2013-7-10,80,65,52,62,53,42,90,66,44,29.74,29.62,6,2,0,0.01
2013-7-11,77,60,49,55,48,43,85,66,45,29.77,29.63,6,2,0,0.00
2013-7-12,74,59,46,56,48,41,90,70,44,29.78,29.67,6,2,0,0.01
2013-7-13,79,63,47,57,48,42,86,61,37,29.85,29.71,8,3,0,0.02
2013-7-14,86,69,52,60,50,37,76,54,31,29.77,29.63,7,2,0,0.00
2013-7-15,87,68,51,59,50,37,83,55,36,29.69,29.48,7,2,0,0.01
2013-7-16,88,72,59,61,54,43,76,54,38,29.64,29.45,4,2,0,0.00
2013-7-17,81,64,54,63,56,50,96,76,52,29.84,29.64,6,2,0,0.02
2013-7-18,84,66,52,63,56,50,96,74,46,29.88,29.74,6,2,0,0.00
2013-7-19,87,66,50,66,57,48,97,76,48,29.82,29.67,7,2,0,0.02
2013-7-20,84,62,50,66,55,48,97,78,49,29.77,29.61,5,2,0,0.00
2013-7-21,87,65,49,66,56,46,97,74,50,29.67,29.56,6,2,0,0.00
2013-7-22,86,66,50,66,56,48,97,74,47,29.72,29.61,7,2,0,0.02
2013-7-23,93,72,56,70,60,54,96,71,39,29.72,29.60,5,2,0,0.00
2013-7-24,92,73,54,66,57,48,87,59,37,29.71,29.63,7,2,0,0.02
2013-7-25,90,73,56,62,54,46,72,54,34,29.75,29.68,6,2,0,0.00
2013-7-26,89,70,52,62,50,40,80,52,32,29.83,29.71,7,3,0,0.02
2013-7-27,80,64,49,57,48,40,88,59,35,29.87,29.68,6,3,0,0.02
2013-7-28,74,59,46,58,50,43,93,73,56,29.75,29.64,8,2,0,0.00
2013-7-29,79,63,52,59,53,46,88,71,51,29.68,29.60,5,1,0,0.01
2013-7-30,84,65,51,64,56,50,97,76,48,29.82,29.68,5,1,0,0.00
2013-7-31,79,65,52,64,56,51,97,75,56,29.80,29.67,5,2,0,0.02
2013-8-1,65,59,55,58,54,51,92,83,75,29.79,29.72,3,1,0,0.00
2013-8-2,69,61,51,59,54,49,98,80,64,29.83,29.76,4,1,0,0.01
2013-8-3,83,66,54,65,58,52,96,78,53,29.80,29.65,6,2,0,0.00
2013-8-4,92,72,56,68,60,54,96,70,43,29.70,29.57,6,2,0,0.00
2013-8-5,91,73,57,67,59,46,96,64,44,29.67,29.57,4,2,0,0.02
2013-8-6,91,73,54,59,50,41,66,47,28,29.67,29.56,5,2,0,0.00
2013-8-7,86,70,53,63,55,45,89,61,41,29.70,29.61,6,2,0,0.02
2013-8-8,84,66,56,66,57,50,89,73,54,29.71,29.58,4,1,0,0.00
2013-8-9,80,68,54,63,56,47,87,68,54,29.62,29.52,6,2,0,0.01
2013-8-10,81,68,58,66,60,56,96,76,60,29.70,29.56,6,2,0,0.00
2013-8-11,75,63,57,64,58,54,95,82,65,29.74,29.65,5,1,0,0.00
2013-8-12,80,64,54,63,57,50,99,79,53,29.74,29.67,5,1,0,0.02
2013-8-13,88,68,52,62,55,49,93,67,34,29.78,29.58,7,1,0,0.00
2013-8-14,82,67,54,62,55,50,95,68,41,29.63,29.58,5,1,0,0.02
2013-8-15,76,69,64,68,63,59,93,82,73,29.64,29.59,5,1,0,0.00
2013-8-16,88,70,60,71,64,56,99,83,53,29.70,29.62,4,1,0,0.02
2013-8-17,83,67,55,64,58,52,96,75,51,29.76,29.68,6,2,0,0.01
2013-8-18,84,68,54,64,58,52,97,72,49,29.81,29.71,8,2,0,0.00
2013-8-19,82,67,54,65,56,50,98,71,48,29.80,29.71,7,2,0,0.02
2013-8-20,82,66,50,62,53,45,86,66,40,29.81,29.66,6,3,0,0.00
2013-8-21,90,70,52,64,54,45,86,59,36,29.69,29.52,6,2,0,0.01
2013-8-22,81,71,58,63,56,49,75,60,47,29.57,29.50,4,1,0,0.00
2013-8-23,75,63,54,64,57,52,98,81,61,29.62,29.53,4,1,0,0.09
2013-8-24,75,64,58,63,57,51,97,80,57,29.59,29.52,4,1,0,0.06
2013-8-25,67,61,53,62,56,50,93,83,75,29.62,29.57,3,1,0,0.08
2013-8-26,74,64,55,63,57,51,99,81,51,29.64,29.57,9,2,0,0.46
2013-8-27,78,66,59,66,61,58,99,84,62,29.63,29.46,5,1,0,0.08
2013-8-28,79,68,57,68,61,57,99,81,61,29.57,29.50,5,1,0,0.02
2013-8-29,77,67,62,70,64,60,99,90,72,29.73,29.51,7,2,0,0.20
2013-8-30,80,67,59,67,61,56,99,82,55,29.82,29.71,5,1,0,0.04
2013-8-31,91,70,55,67,59,53,95,71,42,29.71,29.48,6,2,0,0.00
2013-9-1,86,68,55,63,57,52,94,68,45,29.57,29.46,6,2,0,0.00
2013-9-2,79,68,59,64,57,52,86,68,52,29.59,29.54,9,2,0,0.00
2013-9-3,81,66,57,66,58,51,98,78,51,29.66,29.58,5,1,0,0.41
2013-9-4,74,65,59,63,59,55,92,82,69,29.72,29.64,5,1,0,0.00
2013-9-5,65,61,58,62,59,56,99,94,84,29.70,29.63,4,1,0,0.90
2013-9-6,67,61,57,63,59,55,99,93,81,29.80,29.68,9,2,0,0.95
2013-9-7,80,66,56,66,60,55,99,83,55,29.78,29.62,6,2,0,0.00
2013-9-8,84,69,57,66,60,56,99,76,48,29.74,29.64,6,2,0,0.00
2013-9-9,85,68,57,69,62,57,99,81,54,29.70,29.58,5,2,0,0.00
2013-9-10,92,73,60,69,62,58,94,73,45,29.59,29.45,5,2,0,0.00
2013-9-11,98,78,66,69,62,55,79,58,37,29.60,29.49,4,1,0,0.00
2013-9-12,85,67,54,69,60,53,98,81,59,29.67,29.56,4,1,0,0.00
2013-9-13,77,63,58,68,60,57,99,91,71,29.64,29.50,4,1,0,0.02
2013-9-14,82,66,59,68,61,58,99,88,62,29.53,29.37,4,1,0,0.03
2013-9-15,65,61,56,63,60,55,99,96,90,29.55,29.38,4,1,0,0.04
2013-9-16,68,61,56,64,58,56,98,92,79,29.66,29.55,5,1,0,0.10
2013-9-17,67,58,51,58,52,46,99,83,64,29.68,29.54,6,2,0,0.00
2013-9-18,71,58,48,58,50,44,99,79,54,29.79,29.68,4,1,0,0.00
2013-9-19,81,60,46,60,51,45,99,74,44,29.69,29.45,5,1,0,0.00
2013-9-20,72,58,48,61,53,47,98,85,66,29.45,29.33,6,1,0,0.02
2013-9-21,64,56,51,62,55,51,99,95,83,29.44,29.35,4,1,0,0.20
2013-9-22,62,54,51,62,54,51,99,97,89,29.53,29.31,9,3,0,0.31
2013-9-23,61,55,49,58,54,49,99,96,85,29.68,29.53,6,2,0,0.15
2013-9-24,58,52,48,57,51,47,99,97,91,29.67,29.53,4,1,0,0.31
2013-9-25,59,51,46,53,48,45,99,92,78,29.71,29.53,4,1,0,0.10
2013-9-26,65,51,44,56,48,43,99,90,67,29.85,29.71,5,1,0,0.00
2013-9-27,53,50,44,52,49,44,99,99,97,29.85,29.59,8,2,0,0.32
2013-9-28,60,55,50,60,55,49,99,99,99,29.59,29.16,12,4,0,2.06
2013-9-29,54,51,48,53,51,48,99,99,99,29.35,29.02,14,4,0,1.83
2013-9-30,57,50,45,56,49,45,99,96,84,29.67,29.27,8,3,0,0.24
2013-10-1,58,49,43,56,47,40,99,93,76,29.87,29.65,4,1,0,0.43
2013-10-2,52,46,42,51,45,42,99,97,91,29.86,29.76,5,1,0,0.23
2013-10-3,57,47,40,52,45,40,99,94,76,30.10,29.85,4,1,0,0.01
2013-10-4,63,49,41,56,47,40,99,91,73,30.13,30.02,4,1,0,0.00
2013-10-5,72,52,42,54,46,42,98,82,50,30.02,29.81,3,1,0,0.00
2013-10-6,71,62,45,58,50,38,99,66,45,29.74,29.63,7,2,0,0.00
2013-10-7,62,54,50,54,50,43,99,88,68,29.78,29.64,8,2,0,0.07
2013-10-8,57,52,44,53,48,40,98,87,78,29.77,29.66,7,3,0,0.03
2013-10-9,60,51,41,51,44,39,99,78,63,29.73,29.65,7,2,0,0.01
2013-10-10,58,52,44,51,49,43,96,88,74,29.76,29.64,5,1,0,0.03
2013-10-11,56,48,45,50,44,40,94,88,69,29.81,29.76,3,0,0,0.00
2013-10-12,56,49,42,51,46,40,99,90,78,29.84,29.74,4,0,0,0.00
2013-10-13,63,50,43,53,46,41,99,87,68,29.98,29.84,5,2,0,0.00
2013-10-14,66,54,43,53,45,40,93,73,54,30.04,29.96,5,2,0,0.00
2013-10-15,68,52,40,50,43,38,93,73,48,30.01,29.81,6,2,0,0.00
2013-10-16,66,52,45,53,46,40,93,78,56,29.84,29.78,5,2,0,0.00
2013-10-17,65,51,40,55,46,40,99,86,60,29.91,29.82,4,1,0,0.02
2013-10-18,70,55,44,52,45,41,90,71,46,29.86,29.74,6,2,0,0.00
2013-10-19,68,53,42,54,46,40,97,79,58,29.83,29.76,4,1,0,0.00
2013-10-20,68,52,41,57,47,41,99,86,60,29.82,29.73,4,1,0,0.00
2013-10-21,73,57,44,56,49,43,99,77,56,29.77,29.65,5,2,0,0.00
2013-10-22,75,60,49,55,48,42,81,65,48,29.72,29.62,4,1,0,0.00
2013-10-23,72,57,48,57,50,44,90,77,53,29.68,29.60,5,1,0,0.00
2013-10-24,67,54,46,57,50,44,96,85,67,29.76,29.65,3,1,0,0.00
2013-10-25,52,49,46,51,49,45,99,98,96,29.95,29.76,3,0,0,0.01
2013-10-26,54,48,43,51,47,42,99,95,86,29.97,29.83,5,1,0,0.00
2013-10-27,54,48,45,51,45,42,99,93,79,29.86,29.51,11,2,0,0.09
2013-10-28,57,47,39,47,37,26,98,72,47,29.60,29.50,7,2,0,0.00
2013-10-29,57,44,36,41,33,28,82,66,47,29.73,29.60,6,1,0,0.00
2013-10-30,55,44,32,46,38,30,96,80,63,29.85,29.72,4,0,0,0.00
2013-10-31,58,51,47,52,47,43,98,84,79,29.96,29.83,4,1,0,0.00
2013-11-1,57,51,46,53,50,46,99,95,84,29.97,29.61,4,1,0,0.07
2013-11-2,54,48,40,50,44,35,99,86,70,29.73,29.40,11,4,0,0.45
2013-11-3,49,42,34,47,40,34,99,92,82,29.82,29.72,6,1,0,0.02
2013-11-4,47,44,41,47,44,40,99,99,95,29.85,29.78,4,1,0,0.36
2013-11-5,54,49,46,53,49,45,99,99,99,29.92,29.76,6,2,0,0.18
2013-11-6,52,49,46,52,49,46,99,99,99,29.98,29.77,4,1,0,0.54
2013-11-7,53,49,45,53,48,44,99,97,90,29.80,29.54,10,3,0,0.17
2013-11-8,50,46,41,50,45,41,99,97,93,29.87,29.80,3,1,0,0.02
2013-11-9,49,44,39,48,44,38,99,98,95,29.80,29.72,3,1,0,0.00
2013-11-10,56,48,42,50,46,42,99,93,79,29.76,29.72,4,0,0,0.00
2013-11-11,57,50,42,48,44,41,99,81,67,29.83,29.69,9,4,0,0.00
2013-11-12,55,49,45,54,48,39,99,95,73,30.10,29.75,3,1,0,0.30
2013-11-13,52,47,40,52,46,40,99,99,96,30.17,29.97,4,1,0,0.01
2013-11-14,50,44,41,49,43,41,99,98,94,29.97,29.78,4,0,0,0.01
2013-11-15,46,42,37,45,42,37,99,99,96,29.79,29.21,9,2,0,0.05
2013-11-16,48,44,40,46,42,38,99,92,85,29.52,29.20,6,2,0,0.03
2013-11-17,52,47,42,49,45,41,99,94,91,29.66,29.52,8,3,0,0.00
2013-11-18,49,48,47,49,46,44,99,95,89,29.64,29.37,10,4,0,0.41
2013-11-19,50,45,33,49,43,29,99,95,85,29.70,29.38,7,3,0,0.35
2013-11-20,44,36,30,37,30,25,90,80,72,30.07,29.70,6,2,0,0.00
2013-11-21,45,34,27,29,21,14,80,63,41,30.24,30.07,8,3,0,0.00
2013-11-22,45,35,27,26,19,16,69,53,40,30.24,30.08,15,5,0,0.00
2013-11-23,49,42,38,25,21,18,48,43,37,30.08,29.84,12,6,0,0.00
2013-11-24,50,39,30,32,23,15,63,54,42,29.94,29.84,4,2,0,0.00
2013-11-25,50,39,31,34,27,21,67,61,52,30.02,29.95,6,2,0,0.00
2013-11-26,46,40,32,36,30,22,71,67,62,29.96,29.75,5,1,0,0.00
2013-11-27,52,42,34,39,31,26,77,64,54,29.74,29.62,6,2,0,0.00
2013-11-28,50,40,32,39,31,25,80,70,59,29.86,29.69,5,1,0,0.00
2013-11-29,44,38,32,40,34,28,93,87,76,30.03,29.87,3,0,0,0.00
2013-11-30,48,43,38,45,41,36,98,93,87,30.06,29.93,3,0,0,0.01
2013-12-1,54,50,45,54,50,44,99,98,95,29.92,29.60,14,4,0,0.71
2013-12-2,48,39,30,48,37,28,99,92,75,29.71,29.59,8,2,0,0.06
2013-12-3,40,32,25,38,28,14,99,83,60,29.95,29.71,8,2,0,0.00
2013-12-4,35,27,21,27,19,13,91,72,56,30.00,29.94,6,2,0,0.00
2013-12-5,31,24,17,22,15,10,84,70,59,29.97,29.82,9,2,0,0.00
2013-12-6,27,24,21,19,15,12,77,68,63,29.82,29.64,17,7,0,0.00
2013-12-7,27,20,13,11,6,0,62,55,47,30.08,29.76,12,4,0,0.00
2013-12-8,28,17,10,17,8,0,75,68,58,30.25,30.08,3,1,0,0.00
2013-12-9,27,21,13,22,16,9,85,81,76,30.28,30.19,2,0,0,0.00
2013-12-10,34,28,23,30,25,20,95,89,82,30.22,30.07,3,0,0,0.00
2013-12-11,39,30,25,36,28,25,99,93,82,30.08,29.87,4,1,0,0.01
2013-12-12,38,30,24,38,30,23,99,98,95,29.89,29.78,4,1,0,0.08
2013-12-13,45,40,38,45,40,38,99,99,98,30.11,29.89,3,1,0,0.02
2013-12-14,42,38,36,42,38,36,99,99,99,30.13,30.06,3,0,0,0.00
2013-12-15,44,39,36,44,39,36,99,99,99,30.16,30.10,3,0,0,0.01
2013-12-16,44,39,36,43,39,36,99,99,99,30.15,29.92,4,1,0,0.01
2013-12-17,37,35,34,37,35,34,99,99,99,29.92,29.86,3,0,0,0.02
2013-12-18,40,36,30,40,35,30,99,99,99,29.86,29.74,4,1,0,0.03
2013-12-19,36,31,26,35,30,26,99,98,92,30.00,29.80,4,1,0,0.01
2013-12-20,43,35,30,43,34,30,99,99,99,29.90,29.56,6,2,0,0.10
2013-12-21,50,44,41,50,44,40,99,97,91,29.89,29.60,4,1,0,0.05
2013-12-22,52,46,43,51,45,43,99,98,93,30.02,29.89,4,2,0,0.01
2013-12-23,49,44,36,49,44,36,99,99,98,30.21,29.98,5,2,0,0.12
2013-12-24,40,35,30,40,35,30,99,99,97,30.29,30.16,4,1,0,0.00
2013-12-25,38,34,31,37,34,31,99,99,99,30.16,30.05,4,1,0,0.01
2013-12-26,36,32,29,36,32,29,99,99,99,30.07,29.90,3,1,0,0.00
2013-12-27,34,32,30,34,31,30,99,99,99,30.07,29.88,3,1,0,0.01
2013-12-28,43,38,30,42,37,30,99,97,92,30.18,30.08,3,1,0,0.01
2013-12-29,38,36,34,38,36,33,99,99,99,30.12,29.95,3,1,0,0.00
2013-12-30,40,36,34,40,36,34,99,99,99,29.96,29.85,3,1,0,0.00
2013-12-31,47,40,36,46,40,35,99,99,97,30.02,29.90,3,1,0,0.06
2014-1-1,47,40,36,46,39,36,99,99,96,30.04,29.92,4,1,0,0.01
2014-1-2,41,38,34,40,37,33,99,99,99,29.94,29.70,3,0,0,0.02